| time (UTC) | temp F | wind direction | speed knots | gust knots | rain 1hr in | rain 24hr in | rain mn in | humidity % | barometer mb |
| 20260504020504 | 36 | 319 | 0.0 | 0.0 | 0.00 | 0.00 | 0.00 | 77 | 1009.7 |
| 20260504020008 | 37 | 319 | 0.0 | 0.0 | 0.00 | 0.00 | 0.00 | 77 | 1009.6 |
| 20260504015504 | 37 | 319 | 0.0 | 0.0 | 0.00 | 0.00 | 0.00 | 76 | 1009.6 |
| 20260504015007 | 37 | 319 | 0.0 | 0.0 | 0.00 | 0.00 | 0.00 | 76 | 1009.6 |
| 20260504014521 | 37 | 319 | 0.0 | 0.0 | 0.00 | 0.00 | 0.00 | 75 | 1009.6 |
| 20260504014003 | 37 | 319 | 0.0 | 0.0 | 0.00 | 0.00 | 0.00 | 74 | 1009.5 |
| 20260504013506 | 38 | 319 | 0.0 | 0.0 | 0.00 | 0.00 | 0.00 | 74 | 1009.5 |
| 20260504013019 | 38 | 319 | 0.0 | 0.0 | 0.00 | 0.00 | 0.00 | 74 | 1009.5 |
| 20260504012507 | 38 | 319 | 0.0 | 0.0 | 0.00 | 0.00 | 0.00 | 74 | 1009.4 |
| 20260504012008 | 38 | 319 | 0.0 | 0.0 | 0.00 | 0.00 | 0.00 | 74 | 1009.4 |
| 20260504011523 | 38 | 319 | 0.0 | 0.0 | 0.00 | 0.00 | 0.00 | 74 | 1009.3 |
| 20260504011010 | 39 | 319 | 0.0 | 0.0 | 0.00 | 0.00 | 0.00 | 73 | 1009.3 |
| 20260504010507 | 39 | 319 | 0.0 | 0.0 | 0.00 | 0.00 | 0.00 | 72 | 1009.1 |
| 20260504010024 | 39 | 319 | 0.0 | 0.0 | 0.00 | 0.00 | 0.00 | 73 | 1009.0 |
| 20260504005504 | 40 | 313 | 0.0 | 0.0 | 0.00 | 0.00 | 0.00 | 72 | 1008.9 |
| 20260504005003 | 40 | 313 | 0.0 | 0.0 | 0.00 | 0.00 | 0.00 | 71 | 1008.9 |
| 20260504004511 | 40 | 311 | 0.0 | 0.0 | 0.00 | 0.00 | 0.00 | 69 | 1008.8 |
| 20260504004002 | 41 | 311 | 0.0 | 0.0 | 0.00 | 0.00 | 0.00 | 69 | 1008.7 |
| 20260504003507 | 41 | 311 | 0.0 | 0.0 | 0.00 | 0.00 | 0.00 | 68 | 1008.7 |
| 20260504003012 | 42 | 311 | 0.0 | 0.0 | 0.00 | 0.00 | 0.00 | 66 | 1008.7 |
| 20260504002504 | 42 | 312 | 0.0 | 0.0 | 0.00 | 0.00 | 0.00 | 67 | 1008.6 |
| 20260504002008 | 42 | 311 | 0.0 | 0.0 | 0.00 | 0.00 | 0.00 | 66 | 1008.6 |
| 20260504001518 | 43 | 312 | 0.0 | 0.0 | 0.00 | 0.00 | 0.00 | 65 | 1008.5 |
| 20260504001008 | 44 | 312 | 0.0 | 0.0 | 0.00 | 0.00 | 0.00 | 64 | 1008.4 |
| 20260504000506 | 44 | 312 | 0.0 | 0.0 | 0.00 | 0.00 | 0.00 | 61 | 1008.4 |
| 20260504000024 | 45 | 312 | 0.0 | 0.0 | 0.00 | 0.00 | 0.00 | 60 | 1008.3 |
| 20260503235507 | 46 | 312 | 0.0 | 0.0 | 0.00 | 0.00 | 0.00 | 60 | 1008.3 |
| 20260503235007 | 46 | 312 | 0.0 | 0.0 | 0.00 | 0.00 | 0.00 | 58 | 1008.3 |
| 20260503234524 | 47 | 312 | 0.0 | 0.0 | 0.00 | 0.00 | 0.00 | 57 | 1008.3 |
| 20260503234004 | 48 | 264 | 0.0 | 0.9 | 0.00 | 0.00 | 0.00 | 50 | 1008.2 |
| 20260503233503 | 49 | 233 | 0.0 | 0.9 | 0.00 | 0.00 | 0.00 | 49 | 1008.2 |
| 20260503233009 | 50 | 280 | 0.0 | 0.9 | 0.00 | 0.00 | 0.00 | 49 | 1008.2 |
| 20260503232507 | 50 | 280 | 0.0 | 1.7 | 0.00 | 0.00 | 0.00 | 48 | 1008.2 |
| 20260503232007 | 51 | 58 | 0.0 | 1.7 | 0.00 | 0.00 | 0.00 | 44 | 1008.2 |
| 20260503231516 | 51 | 338 | 0.0 | 3.5 | 0.00 | 0.00 | 0.00 | 43 | 1008.1 |
| 20260503231008 | 52 | 347 | 0.0 | 3.5 | 0.00 | 0.00 | 0.00 | 43 | 1008.1 |
| 20260503230508 | 52 | 3 | 0.0 | 3.5 | 0.00 | 0.00 | 0.00 | 43 | 1008.0 |
| 20260503230021 | 52 | 26 | 0.9 | 2.6 | 0.00 | 0.00 | 0.00 | 41 | 1008.1 |
| 20260503225506 | 53 | 358 | 0.0 | 3.5 | 0.00 | 0.00 | 0.00 | 43 | 1008.1 |
| 20260503225012 | 53 | 342 | 2.6 | 4.3 | 0.00 | 0.00 | 0.00 | 42 | 1008.0 |
| 20260503224524 | 53 | 328 | 0.9 | 5.2 | 0.00 | 0.00 | 0.00 | 40 | 1008.1 |
| 20260503224007 | 53 | 309 | 1.7 | 6.1 | 0.00 | 0.00 | 0.00 | 39 | 1008.0 |
| 20260503223508 | 53 | 341 | 1.7 | 6.1 | 0.00 | 0.00 | 0.00 | 40 | 1008.1 |
| 20260503223028 | 52 | 8 | 0.9 | 4.3 | 0.00 | 0.00 | 0.00 | 43 | 1008.1 |
| 20260503222508 | 52 | 353 | 0.9 | 6.1 | 0.00 | 0.00 | 0.00 | 42 | 1008.2 |
| 20260503222004 | 52 | 326 | 1.7 | 6.1 | 0.00 | 0.00 | 0.00 | 43 | 1008.1 |
| 20260503221511 | 52 | 300 | 2.6 | 5.2 | 0.00 | 0.00 | 0.00 | 41 | 1008.1 |
| 20260503221006 | 52 | 354 | 0.9 | 3.5 | 0.00 | 0.00 | 0.00 | 44 | 1008.1 |
| 20260503220504 | 52 | 290 | 1.7 | 6.1 | 0.00 | 0.00 | 0.00 | 41 | 1008.1 |
| 20260503220017 | 52 | 321 | 3.5 | 6.1 | 0.00 | 0.00 | 0.00 | 42 | 1008.2 |
| 20260503215509 | 51 | 315 | 1.7 | 4.3 | 0.00 | 0.00 | 0.00 | 44 | 1008.1 |
| 20260503215011 | 51 | 326 | 1.7 | 4.3 | 0.00 | 0.00 | 0.00 | 43 | 1008.1 |
| 20260503214522 | 52 | 291 | 1.7 | 6.1 | 0.00 | 0.00 | 0.00 | 43 | 1008.2 |
| 20260503214008 | 52 | 322 | 1.7 | 6.1 | 0.00 | 0.00 | 0.00 | 41 | 1008.2 |
| 20260503213511 | 52 | 6 | 1.7 | 5.2 | 0.00 | 0.00 | 0.00 | 41 | 1008.1 |
| 20260503213024 | 52 | 267 | 1.7 | 4.3 | 0.00 | 0.00 | 0.00 | 40 | 1008.2 |
| 20260503212509 | 52 | 274 | 0.9 | 4.3 | 0.00 | 0.00 | 0.00 | 41 | 1008.1 |
| 20260503212009 | 52 | 293 | 0.9 | 4.3 | 0.00 | 0.00 | 0.00 | 42 | 1008.1 |
| 20260503211528 | 53 | 283 | 0.9 | 4.3 | 0.00 | 0.00 | 0.00 | 41 | 1008.0 |
| 20260503211011 | 53 | 311 | 1.7 | 8.7 | 0.00 | 0.00 | 0.00 | 40 | 1008.0 |
| 20260503210506 | 53 | 321 | 2.6 | 13.9 | 0.00 | 0.00 | 0.00 | 38 | 1008.0 |
| 20260503210015 | 53 | 347 | 6.1 | 13.9 | 0.00 | 0.00 | 0.00 | 39 | 1007.9 |
| 20260503205510 | 54 | 350 | 6.1 | 13.9 | 0.00 | 0.00 | 0.00 | 39 | 1008.0 |
| 20260503205007 | 53 | 274 | 2.6 | 8.7 | 0.00 | 0.00 | 0.00 | 41 | 1007.8 |
| 20260503204526 | 53 | 352 | 4.3 | 8.7 | 0.00 | 0.00 | 0.00 | 40 | 1007.9 |
| 20260503204012 | 52 | 332 | 2.6 | 7.8 | 0.00 | 0.00 | 0.00 | 39 | 1008.0 |
| 20260503203507 | 53 | 304 | 2.6 | 9.6 | 0.00 | 0.00 | 0.00 | 40 | 1007.9 |
| 20260503203024 | 53 | 12 | 5.2 | 9.6 | 0.00 | 0.00 | 0.00 | 41 | 1007.8 |
| 20260503202507 | 54 | 352 | 1.7 | 13.0 | 0.00 | 0.00 | 0.00 | 42 | 1007.8 |
| 20260503202005 | 53 | 335 | 4.3 | 13.0 | 0.00 | 0.00 | 0.00 | 42 | 1007.8 |
| 20260503201506 | 52 | 343 | 6.1 | 13.0 | 0.00 | 0.00 | 0.00 | 43 | 1007.8 |
| 20260503201004 | 51 | 353 | 2.6 | 9.6 | 0.00 | 0.00 | 0.00 | 44 | 1007.8 |
| 20260503200505 | 51 | 1 | 4.3 | 9.6 | 0.00 | 0.00 | 0.00 | 42 | 1007.9 |
| 20260503200012 | 51 | 328 | 1.7 | 11.3 | 0.00 | 0.00 | 0.00 | 44 | 1007.9 |
| 20260503195506 | 51 | 300 | 3.5 | 11.3 | 0.00 | 0.00 | 0.00 | 44 | 1007.9 |
| 20260503195005 | 51 | 4 | 6.1 | 13.0 | 0.00 | 0.00 | 0.00 | 42 | 1008.0 |
| 20260503194512 | 52 | 344 | 2.6 | 13.0 | 0.00 | 0.00 | 0.00 | 45 | 1008.0 |
| 20260503194004 | 52 | 330 | 2.6 | 9.6 | 0.00 | 0.00 | 0.00 | 45 | 1008.0 |
| 20260503193505 | 51 | 333 | 5.2 | 11.3 | 0.00 | 0.00 | 0.00 | 42 | 1008.1 |
| 20260503193006 | 51 | 337 | 3.5 | 13.9 | 0.00 | 0.00 | 0.00 | 44 | 1008.1 |
| 20260503192503 | 51 | 281 | 6.1 | 13.9 | 0.00 | 0.00 | 0.00 | 42 | 1008.1 |
| 20260503192005 | 51 | 1 | 5.2 | 11.3 | 0.00 | 0.00 | 0.00 | 43 | 1008.0 |
| 20260503191504 | 51 | 314 | 3.5 | 9.6 | 0.00 | 0.00 | 0.00 | 42 | 1007.9 |
| 20260503191004 | 52 | 346 | 4.3 | 8.7 | 0.00 | 0.00 | 0.00 | 40 | 1007.9 |
| 20260503190506 | 52 | 320 | 4.3 | 11.3 | 0.00 | 0.00 | 0.00 | 44 | 1007.9 |
| 20260503190011 | 51 | 9 | 4.3 | 12.2 | 0.00 | 0.00 | 0.00 | 43 | 1008.0 |
| 20260503185504 | 51 | 280 | 4.3 | 12.2 | 0.00 | 0.00 | 0.00 | 45 | 1008.0 |
| 20260503185007 | 51 | 327 | 5.2 | 10.4 | 0.00 | 0.00 | 0.00 | 44 | 1008.0 |
| 20260503184522 | 51 | 296 | 4.3 | 10.4 | 0.00 | 0.00 | 0.00 | 45 | 1008.0 |
| 20260503184008 | 51 | 344 | 2.6 | 11.3 | 0.00 | 0.00 | 0.00 | 46 | 1007.9 |
| 20260503183504 | 51 | 305 | 2.6 | 11.3 | 0.00 | 0.00 | 0.00 | 43 | 1007.8 |
| 20260503183016 | 52 | 295 | 3.5 | 9.6 | 0.00 | 0.00 | 0.00 | 44 | 1007.9 |
| 20260503182505 | 51 | 64 | 2.6 | 13.0 | 0.00 | 0.00 | 0.00 | 47 | 1007.9 |
| 20260503182006 | 51 | 350 | 5.2 | 13.0 | 0.00 | 0.00 | 0.00 | 44 | 1007.8 |
| 20260503181505 | 52 | 341 | 4.3 | 12.2 | 0.00 | 0.00 | 0.00 | 44 | 1007.7 |
| 20260503181003 | 52 | 335 | 3.5 | 10.4 | 0.00 | 0.00 | 0.00 | 43 | 1007.6 |
| 20260503180504 | 52 | 309 | 3.5 | 10.4 | 0.00 | 0.00 | 0.00 | 42 | 1007.6 |
| 20260503180016 | 51 | 302 | 2.6 | 10.4 | 0.00 | 0.00 | 0.00 | 43 | 1007.6 |
| 20260503175504 | 52 | 333 | 4.3 | 8.7 | 0.00 | 0.00 | 0.00 | 44 | 1007.8 |
| 20260503175005 | 52 | 347 | 3.5 | 10.4 | 0.00 | 0.00 | 0.00 | 44 | 1007.8 |
| 20260503174510 | 52 | 3 | 4.3 | 11.3 | 0.00 | 0.00 | 0.00 | 43 | 1007.8 |
| 20260503174003 | 51 | 300 | 3.5 | 11.3 | 0.00 | 0.00 | 0.00 | 43 | 1007.7 |
| 20260503173504 | 52 | 330 | 5.2 | 11.3 | 0.00 | 0.00 | 0.00 | 43 | 1007.7 |
| 20260503173023 | 52 | 300 | 5.2 | 13.0 | 0.00 | 0.00 | 0.00 | 42 | 1007.7 |
| 20260503172506 | 52 | 1 | 4.3 | 15.6 | 0.00 | 0.00 | 0.00 | 45 | 1007.7 |
| 20260503172004 | 52 | 320 | 5.2 | 15.6 | 0.00 | 0.00 | 0.00 | 43 | 1007.7 |
| 20260503171522 | 51 | 302 | 3.5 | 10.4 | 0.00 | 0.00 | 0.00 | 47 | 1007.7 |
| 20260503171005 | 51 | 296 | 3.5 | 10.4 | 0.00 | 0.00 | 0.00 | 46 | 1007.7 |
| 20260503170505 | 51 | 291 | 4.3 | 11.3 | 0.00 | 0.00 | 0.00 | 44 | 1007.7 |
| 20260503151007 | 51 | 345 | 7.0 | 14.8 | 0.00 | 0.03 | 0.00 | 49 | 1007.9 |
| 20260503150507 | 51 | 20 | 4.3 | 11.3 | 0.00 | 0.03 | 0.00 | 50 | 1007.9 |
| 20260503131012 | 46 | 347 | 2.6 | 8.7 | 0.00 | 0.03 | 0.00 | 65 | 1008.6 |
| 20260503130503 | 45 | 340 | 2.6 | 7.0 | 0.00 | 0.03 | 0.00 | 65 | 1008.6 |
| 20260503110502 | 36 | 7 | 0.0 | 0.9 | 0.00 | 0.04 | 0.00 | 91 | 1008.6 |
| 20260503090509 | 34 | 8 | 0.0 | 0.0 | 0.00 | 0.11 | 0.00 | 90 | 1008.6 |
| 20260503081512 | 34 | 352 | 0.0 | 0.0 | 0.00 | 0.16 | 0.00 | 88 | 1009.1 |
| 20260503081004 | 34 | 352 | 0.0 | 0.0 | 0.00 | 0.17 | 0.00 | 88 | 1009.2 |
| 20260503072003 | 36 | 352 | 0.0 | 0.0 | 0.00 | 0.27 | 0.00 | 86 | 1009.5 |
| 20260503071511 | 36 | 352 | 0.0 | 0.0 | 0.00 | 0.28 | 0.00 | 86 | 1009.6 |
| 20260503071009 | 36 | 352 | 0.0 | 0.0 | 0.00 | 0.30 | 0.00 | 86 | 1009.6 |
| 20260503055007 | 37 | 337 | 0.0 | 0.0 | 0.00 | 0.32 | 0.00 | 85 | 1010.3 |
| 20260503054517 | 37 | 326 | 0.0 | 0.0 | 0.00 | 0.32 | 0.00 | 84 | 1010.4 |
| 20260503053512 | 37 | 324 | 0.0 | 0.9 | 0.00 | 0.32 | 0.00 | 83 | 1010.4 |
| 20260503053023 | 37 | 324 | 0.0 | 0.9 | 0.00 | 0.32 | 0.00 | 84 | 1010.4 |
| 20260503051006 | 37 | 360 | 0.0 | 0.0 | 0.00 | 0.32 | 0.00 | 86 | 1010.8 |
| 20260503050510 | 37 | 360 | 0.0 | 0.0 | 0.00 | 0.32 | 0.00 | 86 | 1010.8 |
| 20260503050026 | 37 | 360 | 0.0 | 0.0 | 0.00 | 0.32 | 0.00 | 85 | 1010.9 |
| 20260503044522 | 37 | 360 | 0.0 | 0.0 | 0.00 | 0.32 | 0.00 | 84 | 1011.0 |
| 20260503035509 | 39 | 334 | 0.0 | 0.0 | 0.00 | 0.32 | 0.32 | 83 | 1011.4 |
| 20260503035010 | 39 | 334 | 0.0 | 0.0 | 0.00 | 0.32 | 0.32 | 83 | 1011.4 |
| 20260503034527 | 39 | 333 | 0.0 | 0.9 | 0.00 | 0.32 | 0.32 | 82 | 1011.4 |
| 20260503034009 | 39 | 334 | 0.0 | 0.9 | 0.00 | 0.32 | 0.32 | 82 | 1011.4 |
| 20260503033507 | 39 | 334 | 0.0 | 0.9 | 0.00 | 0.32 | 0.32 | 81 | 1011.4 |
| 20260503031521 | 40 | 333 | 0.0 | 0.9 | 0.00 | 0.32 | 0.32 | 79 | 1011.3 |
| 20260503024011 | 41 | 333 | 0.0 | 0.9 | 0.00 | 0.32 | 0.32 | 78 | 1011.3 |
| 20260503023509 | 42 | 333 | 0.0 | 0.9 | 0.00 | 0.32 | 0.32 | 76 | 1011.3 |
| 20260503023027 | 42 | 333 | 0.0 | 0.9 | 0.00 | 0.32 | 0.32 | 77 | 1011.3 |
| 20260503022509 | 42 | 2 | 0.0 | 0.9 | 0.00 | 0.32 | 0.32 | 76 | 1011.4 |
| 20260503022002 | 43 | 2 | 0.0 | 0.0 | 0.00 | 0.32 | 0.32 | 73 | 1011.5 |
| 20260503021503 | 43 | 2 | 0.0 | 0.0 | 0.00 | 0.32 | 0.32 | 72 | 1011.6 |
| 20260503021006 | 43 | 2 | 0.0 | 0.0 | 0.00 | 0.32 | 0.32 | 72 | 1011.6 |